Wind_Speed
17 18 18 18 18 19 20 20 20 21 22 24 25 26 28 29 30 32 32 33 34 34 35 36 37 38 39 40 41 42 43 44 44 45 45 45 46 45 45 45 45 45 45
19 20 21 22 22 23 24 24 24 25 26 27 29 30 32 34 36 37 38 39 40 41 42 43 44 45 45 46 47 48 49 50 50 51 51 51 51 51 50 50 49 49 48
22 23 24 25 26 26 27 28 28 29 30 31 32 34 35 38 40 41 43 44 45 46 47 48 49 50 51 52 52 53 54 55 55 56 56 56 56 56 55 54 53 53 52
25 26 28 28 29 29 30 31 32 33 34 35 36 38 39 41 43 45 46 48 49 50 51 51 52 54 55 55 56 57 58 59 59 60 60 60 60 59 59 58 56 55 55
30 30 31 32 32 32 32 33 35 37 38 39 40 42 43 44 46 47 49 50 51 52 54 55 56 57 58 58 59 60 61 62 62 62 62 62 62 61 61 60 59 57 56
34 35 35 34 34 34 34 34 36 39 41 42 43 44 45 46 48 49 50 51 53 54 56 57 58 59 60 61 62 62 63 63 64 64 63 63 63 63 62 61 60 58 57
37 39 39 37 37 35 35 36 37 40 42 44 45 46 47 48 50 51 51 53 55 56 58 59 60 62 63 63 64 64 64 65 64 64 64 64 63 63 62 61 59 58 57
40 40 40 39 37 37 37 37 39 41 44 45 46 47 47 49 51 52 54 56 58 59 60 61 62 63 64 64 65 65 65 65 65 64 64 64 64 62 61 59 58 58 58
41 42 42 41 39 38 39 40 42 43 45 46 48 49 49 50 52 55 58 59 60 61 62 63 63 64 65 65 65 65 65 65 65 64 64 64 63 61 60 58 58 57 58
43 43 43 41 41 41 42 43 44 45 46 48 50 51 53 54 55 57 59 61 62 62 62 63 63 64 65 65 66 66 66 66 66 66 65 64 62 60 59 58 57 57 57
44 44 44 44 44 45 45 46 47 47 48 50 52 54 57 59 60 60 59 60 61 62 63 63 64 65 67 67 68 69 69 68 68 67 66 64 62 60 58 58 57 56 55
45 45 46 46 47 47 47 48 48 49 51 53 55 58 60 61 62 61 60 60 61 62 63 65 66 68 70 70 71 72 71 71 70 69 67 65 62 59 57 57 57 56 55
46 47 47 48 48 48 49 49 50 52 54 56 59 61 61 62 62 62 62 61 61 62 65 67 69 71 73 74 74 75 75 74 72 70 68 66 63 60 58 57 57 56 55
49 49 50 50 50 50 51 52 54 55 57 59 61 61 61 62 63 63 63 63 63 64 66 68 71 74 75 76 76 77 77 76 74 72 70 68 65 62 60 58 57 57 56
52 52 52 52 52 53 55 56 57 58 60 61 61 62 62 63 64 64 64 66 67 66 67 69 72 75 76 76 75 75 74 74 72 71 69 67 66 63 61 60 59 58 58
55 55 56 56 58 58 59 60 60 61 61 62 62 62 63 63 64 64 65 67 69 70 70 70 73 75 75 73 70 68 66 65 63 62 61 61 61 60 60 59 59 60 60
58 59 60 61 61 62 62 62 62 62 63 63 63 62 62 64 64 65 66 68 70 72 72 71 71 70 67 64 61 59 56 54 52 51 51 51 52 53 54 56 58 59 60
62 63 63 64 64 63 63 63 62 62 63 63 62 63 63 63 63 64 66 67 69 70 70 67 63 60 58 55 52 50 47 45 43 42 42 43 44 45 47 49 52 55 58
64 64 63 63 63 62 62 61 60 61 62 62 63 63 62 62 62 63 64 65 66 65 63 60 54 50 47 45 42 40 38 36 35 35 35 36 36 38 40 43 46 49 53
62 61 60 60 60 59 59 60 61 61 61 61 61 60 60 60 60 61 61 61 59 56 52 49 44 41 38 36 34 31 28 28 28 29 30 31 32 34 35 38 40 43 46
58 58 58 58 59 59 59 60 61 60 60 58 58 58 58 58 58 58 56 53 49 45 41 38 34 31 29 28 26 24 22 23 24 25 25 26 27 28 30 31 34 37 40
55 56 56 57 57 58 59 59 59 57 56 55 55 55 55 55 54 51 47 43 39 34 30 27 25 23 21 20 19 19 19 19 20 21 20 20 20 21 24 26 29 31 34
54 54 55 57 58 58 58 57 55 54 54 53 53 52 51 49 44 40 36 32 28 25 22 20 18 17 16 16 16 16 17 17 16 17 16 16 16 17 19 21 24 26 28
52 54 56 56 56 55 54 52 51 51 50 50 48 46 43 39 35 30 25 22 20 18 17 16 15 15 15 15 15 15 15 15 15 15 14 13 14 14 14 16 19 21 24
53 54 54 53 51 49 48 47 47 46 46 44 41 38 33 29 25 20 17 15 14 13 13 13 13 14 14 15 15 15 15 15 15 15 14 13 12 12 12 12 14 16 18
50 49 47 45 45 44 44 43 42 40 38 36 33 29 26 21 16 13 11 10 10 10 11 12 13 14 15 16 16 16 16 15 14 13 12 11 10 10 10 10 11 13 15
Wind_Direction
321 318 313 307 302 297 293 290 285 281 279 278 278 278 278 279 280 281 281 281 281 281 281 281 281 281 281 281 281 281 281 281 281 280 279 279 278 277 277 276 275 274 273
318 314 312 308 302 296 291 288 285 282 281 279 279 278 279 281 282 282 282 282 283 283 283 283 283 282 281 281 281 281 280 280 280 280 279 279 278 277 276 275 274 273 272
315 311 307 307 304 297 291 285 282 281 281 281 281 281 282 283 283 283 283 284 284 284 284 284 284 283 282 281 281 280 280 280 279 279 279 278 277 277 276 275 273 272 270
309 309 304 304 303 299 293 287 283 282 282 283 283 283 284 285 285 285 285 285 285 285 285 284 284 283 283 282 282 281 281 281 280 279 279 278 278 277 275 274 273 271 269
305 304 303 299 299 297 292 286 281 280 282 283 284 284 285 286 286 286 286 286 286 286 285 285 284 283 283 282 282 282 281 281 281 280 280 279 278 277 275 274 272 270 268
300 300 299 296 295 294 291 286 282 279 280 281 283 285 286 287 287 287 287 287 287 287 287 286 284 284 283 282 282 282 282 282 282 281 280 280 279 277 275 273 271 268 266
296 297 294 295 294 293 291 288 285 283 283 282 283 284 286 286 288 289 288 288 288 288 287 286 285 284 284 283 283 282 282 282 281 280 280 279 278 276 274 272 269 266 264
294 295 293 292 292 292 291 288 286 285 284 284 285 286 287 288 288 289 289 288 288 287 287 286 285 285 284 283 282 281 281 280 280 280 279 279 278 277 274 271 268 265 262
294 295 295 293 291 291 290 288 288 287 287 287 287 287 288 288 288 288 289 288 287 287 287 286 286 285 284 283 282 281 281 280 280 279 279 278 277 275 272 269 266 263 260
293 295 296 295 295 293 292 291 290 289 289 288 289 289 289 289 289 289 288 289 289 289 288 287 287 286 285 283 282 282 281 280 279 279 278 277 275 272 269 266 262 259 257
294 295 295 295 295 294 293 292 292 291 290 290 290 290 291 291 291 290 289 288 289 289 289 288 287 286 284 284 283 282 281 280 279 278 277 276 274 271 267 264 261 258 255
293 294 294 294 293 293 293 293 292 291 291 291 291 291 292 292 293 292 291 290 289 289 289 289 287 286 285 284 283 282 281 280 279 278 276 274 271 268 265 262 259 256 253
293 293 293 293 292 291 291 291 291 291 292 292 292 293 293 293 293 293 292 291 291 290 290 289 288 287 286 285 284 282 281 279 278 276 274 272 269 265 262 259 257 254 251
292 292 292 292 291 291 291 291 292 292 292 291 292 293 293 294 294 294 293 293 292 291 290 289 288 287 286 285 284 282 280 279 276 274 272 269 266 263 260 256 254 252 249
290 290 291 291 291 292 293 293 293 293 292 293 294 294 294 295 296 295 295 294 293 292 290 289 287 287 286 285 284 282 280 278 276 273 270 267 264 261 257 254 251 248 246
290 290 291 292 293 294 294 294 293 294 294 294 295 297 298 298 298 297 295 294 294 293 292 290 289 288 287 286 285 283 281 278 275 271 267 264 261 257 254 251 248 246 244
288 289 291 292 293 294 294 294 294 294 296 297 298 299 300 300 298 296 295 295 295 294 294 293 292 291 290 289 287 285 282 279 276 271 267 263 259 255 251 248 245 243 241
289 290 291 292 293 294 295 295 295 296 298 299 300 301 300 299 298 297 297 297 296 296 296 296 295 294 293 290 288 287 284 280 276 272 267 263 259 255 251 247 243 241 239
289 290 291 292 293 293 295 295 297 299 300 300 301 301 300 299 298 298 298 298 298 298 299 299 299 297 295 293 291 289 286 281 277 273 268 263 259 255 251 247 244 242 239
289 289 290 292 293 294 295 298 300 302 302 302 301 300 299 299 299 299 299 300 301 302 302 303 302 300 297 295 294 292 288 284 281 276 270 264 260 256 252 249 246 243 240
288 290 291 292 294 296 298 300 301 302 302 302 300 299 299 299 300 301 302 303 304 304 305 306 306 303 300 298 297 296 291 287 285 281 275 268 263 258 253 250 247 243 240
290 292 293 294 296 298 300 301 301 301 300 299 299 299 299 300 301 303 304 306 307 309 311 312 311 309 308 307 306 303 299 294 290 288 285 278 271 261 254 250 246 243 240
291 293 294 296 298 300 301 301 300 299 299 299 299 299 300 301 303 305 306 307 310 315 318 319 319 319 319 317 315 311 307 304 298 295 292 284 277 267 259 252 247 243 240
293 295 296 298 299 300 300 300 299 300 300 299 299 300 302 304 306 307 308 310 314 318 321 325 329 330 329 326 322 318 314 310 305 302 298 289 281 274 265 254 248 244 240
295 296 297 298 299 299 299 300 300 300 299 300 301 303 305 307 308 309 311 314 318 323 327 332 335 336 334 331 328 325 320 315 308 303 298 291 283 275 266 256 248 243 238
295 297 298 299 300 300 301 301 301 301 302 303 304 306 308 310 311 314 319 324 329 334 339 343 344 342 339 336 335 332 329 324 318 310 302 294 284 275 265 258 248 241 235
Height
5873 5872 5870 5869 5868 5866 5865 5864 5863 5862 5860 5858 5857 5855 5853 5851 5849 5848 5846 5844 5843 5842 5840 5839 5837 5836 5834 5833 5831 5830 5828 5827 5826 5825 5824 5824 5823 5823 5822 5822 5822 5823 5823
5870 5868 5866 5865 5864 5862 5861 5860 5858 5857 5856 5854 5852 5850 5848 5845 5843 5841 5839 5837 5835 5833 5832 5830 5828 5826 5824 5823 5821 5819 5818 5816 5815 5814 5813 5812 5811 5811 5811 5811 5811 5812 5812
5865 5863 5861 5859 5858 5857 5855 5853 5851 5850 5849 5847 5845 5844 5842 5839 5836 5833 5831 5828 5826 5824 5822 5820 5818 5815 5813 5811 5810 5808 5806 5804 5802 5801 5800 5799 5798 5798 5798 5798 5798 5799 5800
5858 5856 5854 5852 5850 5849 5847 5845 5844 5842 5841 5839 5837 5836 5834 5831 5828 5825 5822 5819 5817 5814 5812 5809 5806 5803 5801 5799 5797 5794 5792 5790 5789 5787 5785 5784 5784 5783 5783 5784 5784 5785 5786
5851 5849 5847 5845 5843 5841 5840 5838 5836 5834 5832 5831 5829 5827 5824 5822 5818 5815 5812 5809 5805 5802 5799 5796 5793 5790 5787 5784 5782 5780 5777 5775 5774 5772 5770 5769 5768 5768 5768 5768 5769 5770 5771
5844 5842 5840 5838 5836 5833 5832 5830 5827 5825 5823 5822 5819 5817 5814 5811 5807 5804 5801 5797 5794 5790 5786 5782 5779 5776 5772 5769 5767 5764 5762 5760 5757 5755 5754 5752 5751 5751 5751 5751 5752 5754 5755
5836 5834 5832 5829 5827 5825 5823 5820 5818 5816 5813 5811 5809 5807 5804 5800 5797 5793 5789 5785 5781 5777 5772 5768 5764 5761 5757 5754 5751 5749 5746 5743 5741 5739 5737 5735 5734 5733 5734 5734 5735 5737 5738
5828 5825 5823 5820 5818 5816 5813 5811 5808 5805 5803 5800 5798 5796 5794 5791 5785 5781 5777 5772 5767 5763 5758 5754 5749 5745 5742 5738 5735 5732 5730 5727 5725 5722 5720 5718 5717 5716 5716 5717 5718 5719 5721
5820 5817 5814 5811 5809 5806 5804 5801 5798 5795 5792 5789 5787 5784 5781 5778 5774 5770 5764 5758 5753 5748 5744 5739 5734 5729 5725 5721 5718 5715 5712 5709 5707 5705 5703 5701 5699 5698 5698 5699 5701 5702 5704
5811 5808 5805 5801 5799 5796 5793 5790 5788 5785 5782 5778 5774 5771 5768 5764 5760 5757 5751 5744 5738 5733 5728 5722 5717 5711 5707 5703 5699 5696 5693 5691 5689 5686 5684 5682 5681 5680 5680 5681 5683 5684 5686
5802 5799 5795 5792 5789 5786 5782 5779 5776 5773 5770 5766 5762 5757 5753 5749 5744 5740 5737 5731 5724 5717 5711 5705 5699 5693 5688 5683 5679 5676 5673 5671 5668 5666 5665 5663 5662 5662 5662 5663 5665 5667 5670
5793 5790 5786 5782 5779 5775 5772 5768 5765 5761 5757 5753 5749 5744 5738 5733 5727 5722 5719 5714 5709 5702 5694 5687 5681 5674 5669 5664 5659 5655 5652 5649 5647 5646 5644 5643 5643 5643 5644 5645 5647 5650 5654
5784 5781 5777 5772 5768 5765 5761 5757 5753 5749 5745 5740 5735 5729 5724 5718 5712 5706 5702 5697 5692 5686 5679 5670 5661 5654 5647 5642 5637 5633 5630 5627 5625 5624 5623 5623 5623 5624 5625 5627 5630 5633 5637
5774 5770 5766 5762 5758 5754 5750 5745 5741 5736 5731 5726 5720 5714 5708 5702 5695 5689 5684 5678 5674 5669 5662 5653 5643 5633 5626 5619 5614 5609 5606 5603 5601 5600 5600 5600 5602 5604 5606 5609 5612 5616 5620
5762 5758 5754 5750 5746 5741 5737 5732 5727 5722 5716 5711 5705 5698 5692 5686 5679 5672 5665 5658 5653 5649 5645 5635 5624 5613 5604 5597 5590 5585 5581 5578 5576 5576 5576 5577 5579 5582 5585 5588 5593 5597 5603
5750 5746 5741 5737 5732 5728 5723 5717 5711 5706 5700 5694 5688 5682 5675 5669 5662 5654 5647 5639 5631 5625 5621 5614 5602 5592 5583 5575 5568 5562 5558 5554 5553 5552 5552 5554 5556 5559 5563 5567 5572 5578 5584
5737 5733 5728 5723 5718 5713 5708 5702 5696 5690 5685 5678 5672 5666 5659 5652 5645 5636 5628 5620 5611 5602 5597 5592 5580 5570 5561 5554 5548 5542 5538 5535 5534 5533 5533 5534 5536 5539 5542 5547 5552 5558 5565
5724 5719 5714 5709 5704 5698 5692 5687 5681 5675 5669 5663 5656 5650 5642 5635 5627 5619 5611 5602 5592 5582 5574 5569 5561 5551 5543 5536 5531 5526 5522 5519 5518 5517 5517 5518 5520 5522 5525 5529 5534 5539 5546
5710 5705 5700 5694 5688 5683 5677 5671 5665 5659 5653 5647 5640 5634 5626 5618 5611 5602 5593 5584 5575 5565 5556 5550 5544 5536 5529 5522 5517 5514 5510 5507 5506 5505 5505 5506 5507 5508 5511 5515 5519 5524 5530
5695 5690 5685 5679 5673 5668 5662 5656 5650 5644 5638 5631 5624 5617 5610 5602 5594 5586 5578 5568 5559 5551 5543 5535 5529 5523 5517 5512 5507 5504 5501 5498 5497 5495 5495 5495 5496 5497 5500 5502 5506 5510 5515
5680 5675 5670 5665 5659 5653 5648 5641 5635 5629 5623 5616 5609 5601 5594 5587 5579 5571 5563 5555 5547 5540 5533 5526 5519 5514 5509 5504 5501 5498 5495 5493 5490 5488 5487 5487 5487 5489 5490 5492 5494 5498 5503
5666 5661 5655 5650 5645 5639 5633 5627 5620 5614 5607 5601 5594 5587 5580 5573 5566 5559 5551 5544 5537 5531 5525 5519 5514 5508 5504 5500 5496 5493 5490 5488 5485 5483 5481 5481 5480 5480 5481 5483 5485 5488 5492
5652 5647 5642 5636 5631 5625 5618 5612 5606 5600 5593 5587 5581 5574 5568 5561 5555 5549 5543 5536 5531 5525 5520 5515 5511 5506 5502 5498 5494 5490 5487 5484 5481 5479 5477 5476 5474 5475 5475 5476 5477 5480 5483
5639 5633 5628 5623 5617 5611 5605 5598 5592 5586 5579 5573 5568 5562 5557 5551 5546 5541 5536 5531 5527 5522 5518 5513 5509 5505 5500 5496 5492 5488 5485 5482 5478 5475 5473 5472 5470 5470 5469 5470 5471 5473 5475
5626 5621 5615 5610 5604 5598 5592 5586 5580 5573 5567 5562 5557 5552 5548 5544 5540 5535 5532 5528 5524 5521 5517 5512 5508 5504 5499 5495 5491 5486 5483 5479 5476 5472 5470 5468 5467 5466 5466 5466 5467 5468 5470
5613 5608 5602 5597 5591 5586 5580 5575 5569 5563 5557 5552 5548 5544 5541 5538 5535 5532 5529 5526 5523 5520 5516 5512 5508 5504 5499 5494 5489 5485 5480 5476 5473 5470 5467 5465 5464 5463 5463 5463 5464 5464 5466